SCOUT A DEB, 2140

Orbit data source: Space-Track

SCOUT A DEB, 2140 is space debris in LEO originally from a launch on Fri, 28 Jan 1966 UTC launched from the Air Force Western Test Range (AFWTR). Debris objects in space refer to the collection of defunct objects orbiting the Earth. Examples of debris include non-operational satellites, rocket bodies, and fragments generated from explosions, collisions, or faulty payload assembly.

Loading next visibility...
Identifier
2140, 1966-005C
Orbit
LEO
Country
Flag of USUS
Related business
Manufacturer
Unknown
Mission
Spacecraft
Bus & Motor
Unknown
Mass
Unknown
Launch date (UTC)
1966-01-28 (60 years ago)
Launch vehicle
Unknown
Launch site
Air Force Western Test Range (AFWTR)
Object type
Payload
Rocket body
Debris
Shape & HBR
Unknown shape, 0.1 m
Radar Cross Section
Small (<0.1 m²)

Expand to show TLE details & history
Last TLE update: 2 days ago

TLE from 2 days ago
0 SCOUT A DEB
1 02140U 66005C   25298.82720697  .00000346  00000-0  39552-3 0  9991
2 02140  89.9565  51.5853 0317853 142.0441 220.3582 13.48324990926878
Epoch: 2025-10-25T19:51Z
TLE epoch observation values (Epoch: 2025-10-25T19:51:10.682Z)
Latitude
-0.00006°
Longitude
79.33862°
Altitude
1,265.074 km
Speed
7.133 km/s
True Right ascension
03h 26m 20s
True Declination
0° 00' 00"
Sunlit
Object was in full shadow at epoch
Visualization orbit readout
Latitude
Unknown
Longitude
Unknown
Altitude
Unknown
Speed
Unknown
Apparent Right ascension
Unknown
Apparent Declination
Unknown
Sunlit
N/A
Visualization observer readout
Local Sidereal Time
02:22:57
Azimuth
Unknown
Elevation
Unknown
Doppler factor
Unknown
Orbital elements
Apogee altitude
1,312.391 km
Perigee altitude
838.56 km
Semi-major axis
7,453.612 km
Eccentricity
0.03179
Inclination
89.9565°
RAAN
51.5853°
Arg. of periapsis
142.0441°
True anomaly
218.06956°
Mean anomaly
220.3582°
Eccentric anomaly
219.207°
Mean motion
3.37282 °/min
Orbital period
106.74 mins
BSTAR
0.00039552
Loading maneuver chart data...
Computing Atmospheric mass density...
Loading historical data...
Loading historical data...
Loading historical data...
Loading historical data...
Loading historical data...
Loading historical data...
Loading historical data...

Documentation

Showing up to 5 results
|